Weather History for Wenatchee, WA

Change the Weather History Date:

Thursday, May 23, 2013

  Actual Average Record
Temperature  
Mean Temperature 52 °F 55 °F  
Max Temperature 60 °F 67 °F 93 °F (2001)
Min Temperature 44 °F 43 °F 38 °F (1975)
Degree Days  
Heating Degree Days 13 10  
Month to date heating degree days 110 297  
Since 1 July heating degree days 5293 6876  
Cooling Degree Days 0 0  
Month to date cooling degree days 57 0  
Year to date cooling degree days 60 0  
Moisture  
Dew Point 38 °F    
Average Humidity 66    
Maximum Humidity 89    
Minimum Humidity 43    
Precipitation  
Precipitation T in 0.06 in 0.47 in (1962)
Month to date precipitation 1.24 1.20  
Year to date precipitation 3.23 7.47  
Snow  
Snow 0.00 in 0.00 in - ()
Month to date snowfall 0.5  
Since 1 July snowfall 54.1  
Snow Depth -    
Sea Level Pressure  
Sea Level Pressure 29.98 in    
Wind  
Wind Speed 5 mph (SE)    
Max Wind Speed 17 mph    
Max Gust Speed 21 mph    
Visibility 10 miles    
Events Rain    
T = Trace of Precipitation, MM = Missing Value Source: NWS Daily Summary

Daily Weather History Graph

Daily Weather History Graph

Search for Another Location

Airport:

Trip Planner

Search our weather history database for the weather conditions in past years. The results will help you decide how hot, cold, wet, or windy it might be!

Date:

Astronomy

May. 23, 2013 Rise Set
Actual Time 5:14 AM PDT 8:40 PM PDT
Civil Twilight 4:37 AM PDT 9:18 PM PDT
Nautical Twilight 3:47 AM PDT 10:09 PM PDT
Astronomical Twilight 2:42 AM PDT 11:15 PM PDT
Moon 7:14 PM PDT (5/23) 4:10 AM PDT (5/23)
Length of Visible Light 16h 41m
Length of Day
15h 26m
Waxing Gibbous, 97% of the Moon is Illuminated
May 23
Waxing Gibbous
May 24
Full
May 31
Last Quarter
Jun 8
New
Jun 16
First Quarter

Hourly Weather History & Observations

Time (PDT) Temp. Windchill Dew Point Humidity Pressure Visibility Wind Dir Wind Speed Gust Speed Precip Events Conditions
12:55 AM 44.1 °F 41.5 °F 39.9 °F 85% 29.97 in 10.0 mi West 4.6 mph - N/A   Overcast
1:55 AM 44.1 °F 42.5 °F 39.9 °F 85% 29.99 in 10.0 mi NW 3.5 mph - N/A   Overcast
2:55 AM 45.0 °F - 39.0 °F 80% 29.99 in 10.0 mi Calm Calm - N/A   Overcast
3:55 AM 45.0 °F - 41.0 °F 86% 30.00 in 10.0 mi Calm Calm - N/A   Overcast
4:55 AM 45.0 °F - 39.9 °F 82% 29.99 in 10.0 mi Calm Calm - N/A   Overcast
5:55 AM 45.0 °F 43.5 °F 39.0 °F 80% 29.99 in 10.0 mi SE 3.5 mph - N/A   Overcast
6:55 AM 45.0 °F 42.6 °F 39.0 °F 80% 30.01 in 10.0 mi South 4.6 mph - N/A   Overcast
7:55 AM 45.0 °F 43.5 °F 39.0 °F 80% 30.01 in 10.0 mi ESE 3.5 mph - N/A   Overcast
8:11 AM 46.4 °F 43.5 °F 39.2 °F 76% 30.00 in 10.0 mi SE 5.8 mph - N/A   Overcast
8:41 AM 46.4 °F 43.5 °F 39.2 °F 76% 30.00 in 10.0 mi SE 5.8 mph - N/A   Overcast
8:55 AM 46.9 °F - 39.9 °F 77% 30.01 in 10.0 mi SSE 8.1 mph - N/A   Overcast
9:16 AM 46.4 °F 42.4 °F 39.2 °F 76% 30.00 in 10.0 mi SE 8.1 mph - N/A   Overcast
9:55 AM 50.0 °F - 39.9 °F 68% 30.01 in 10.0 mi SE 9.2 mph - N/A   Overcast
10:04 AM 50.0 °F - 39.2 °F 66% 30.00 in 10.0 mi East 5.8 mph - N/A   Overcast
10:55 AM 50.0 °F - 39.0 °F 66% 30.00 in 10.0 mi SSE 11.5 mph - 0.00 in Rain Light Rain
11:55 AM 52.0 °F - 35.1 °F 53% 30.00 in 10.0 mi Variable 4.6 mph - 0.00 in   Overcast
12:55 PM 54.0 °F - 36.0 °F 51% 29.99 in 10.0 mi SSE 9.2 mph - N/A   Overcast
1:55 PM 55.0 °F - 37.0 °F 51% 29.98 in 10.0 mi SSE 16.1 mph 20.7 mph N/A   Overcast
2:55 PM 55.9 °F - 36.0 °F 47% 29.98 in 10.0 mi SSE 6.9 mph - N/A   Mostly Cloudy
3:55 PM 57.0 °F - 37.0 °F 47% 29.97 in 10.0 mi ESE 6.9 mph - N/A   Overcast
4:55 PM 57.0 °F - 35.1 °F 44% 29.96 in 10.0 mi ESE 9.2 mph - N/A   Mostly Cloudy
5:55 PM 55.9 °F - 36.0 °F 47% 29.96 in 10.0 mi Calm Calm - 0.00 in   Mostly Cloudy
6:55 PM 57.9 °F - 37.0 °F 46% 29.95 in 10.0 mi Variable 4.6 mph - N/A   Mostly Cloudy
7:55 PM 54.0 °F - 37.0 °F 53% 29.96 in 10.0 mi Calm Calm - 0.00 in   Mostly Cloudy
8:55 PM 54.0 °F - 37.9 °F 55% 29.96 in 10.0 mi Calm Calm - N/A   Clear
9:55 PM 52.0 °F - 39.0 °F 61% 29.97 in 10.0 mi NW 9.2 mph - N/A   Clear
10:55 PM 50.0 °F - 39.9 °F 68% 29.96 in 10.0 mi NW 8.1 mph - N/A   Partly Cloudy
11:55 PM 48.9 °F - 39.9 °F 71% 29.96 in 10.0 mi NW 6.9 mph - N/A   Mostly Cloudy